CZ-6A DEB, 60799

Orbit data source: Space-Track

CZ-6A DEB, 60799 is space debris in LEO originally from a launch on Tue, 06 Aug 2024 UTC launched from the Taiyaun Space Center, China (TSC). Debris objects in space refer to the collection of defunct objects orbiting the Earth. Examples of debris include non-operational satellites, rocket bodies, and fragments generated from explosions, collisions, or faulty payload assembly.

Loading next visibility...
Identifier
60799, 2024-140GA
Orbit
LEO
Country
Flag of CNCN / PRC
Related business
Manufacturer
SAST
Mission
Spacecraft
Bus & Motor
Unknown
Mass
Unknown
Launch date (UTC)
2024-08-06 (2 years ago)
Launch vehicle
Unknown
Launch site
Taiyaun Space Center, China (TSC)
Object type
Payload
Rocket body
Debris
Shape & HBR
Unknown shape, 0.2 m
Radar Cross Section
Medium (>0.1 m² and <1 m²)

Expand to show TLE details & history
Last TLE update: 13 hours ago

TLE from 13 hours ago
0 CZ-6A DEB
1 60799U 24140GA  26171.30104704  .00000227  00000-0  46067-4 0  9996
2 60799  88.9603 266.4225 0111270 242.7751 116.2086 14.53728422 98373
Epoch: 2026-06-20T07:13Z
TLE epoch observation values (Epoch: 2026-06-20T07:13:30.464Z)
Latitude
-0°
Longitude
-110.47207°
Altitude
752.157 km
Speed
7.46 km/s
True Right ascension
17h 45m 41s
True Declination
0° 00' 00"
Sunlit
Object was in full shadow at epoch
Visualization orbit readout
Latitude
Unknown
Longitude
Unknown
Altitude
Unknown
Speed
Unknown
Apparent Right ascension
Unknown
Apparent Declination
Unknown
Sunlit
N/A
Visualization observer readout
Local Sidereal Time
07:12:00
Azimuth
Unknown
Elevation
Unknown
Doppler factor
Unknown
Orbital elements
Apogee altitude
789.274 km
Perigee altitude
631.526 km
Semi-major axis
7,088.537 km
Eccentricity
0.01113
Inclination
88.9603°
RAAN
266.4225°
Arg. of periapsis
242.7751°
True anomaly
117.34551°
Mean anomaly
116.2086°
Eccentric anomaly
116.77776°
Mean motion
3.63671 °/min
Orbital period
98.99 mins
BSTAR
0.000046067
Loading maneuver chart data...
Computing Atmospheric mass density...
Loading historical data...
Loading historical data...
Loading historical data...
Loading historical data...
Loading historical data...
Loading historical data...
Loading historical data...

Documentation

Showing up to 5 results
|